Location: Le Domaine
(47.0333°N, 76.5361°W)
Time: 04:39:36
(UTC-04:00)

OTV 5 (USA 277) - Visible Passes

Search period start: 20 October 2019 00:00
Search period end: 30 October 2019 00:00
Orbit: 310 x 324 km, 54.5° (Epoch: 17 October)

Date Brightness Start Highest point End Pass type
(mag) Time Alt. Az. Time Alt. Az. Time Alt. Az.
20 Oct ? 05:37:48 24° SSE 05:37:48 24° SSE 05:39:05 10° SE visible
21 Oct ? 05:52:34 12° S 05:52:34 12° S 05:52:58 10° S visible
28 Oct ? 19:10:01 10° S 19:11:24 15° SE 19:11:24 15° SE visible
29 Oct ? 19:23:32 10° SSW 19:25:53 35° SSE 19:25:53 35° SSE visible
